Regional Weather Roundup
Issued by NWS

Home | Current Version | Previous Version | Graphics & Text | Print | Product List | Glossary On
Versions: 1 2 3 4 5 6 7 8 9 10 11 12 13 14 15 16 17 18 19 20 21 22 23 24 25 26 27 28 29 30 31 32 33 34 35 36 37 38 39 40 41 42 43 44 45 46 47 48 49 50
000
ASUS43 KMKX 050200
RWRWI

WISCONSIN REGIONAL WEATHER ROUNDUP
NATIONAL WEATHER SERVICE MILWAUKEE/SULLIVAN WI
900 PM CDT FRI SEP 04 2015

NOTE: "FAIR" INDICATES FEW OR NO CLOUDS BELOW 12,000 FEET WITH NO
SIGNIFICANT WEATHER AND/OR OBSTRUCTIONS TO VISIBILITY.

WIZ001-002-006>008-014>016-023>028-050300-
NORTHWEST WISCONSIN

CITY           SKY/WX    TMP DP  RH WIND       PRES   REMARKS
SUPERIOR ARPT  MOCLDY    59  57  92 NE6       29.98R
ASHLAND        PTCLDY    63  63 100 CALM      29.98S
HAYWARD        CLEAR     74  66  76 SE8       30.00R
SIREN          CLEAR     78  70  78 SE6       29.95S
CUMBERLAND     CLEAR     73  70  88 SE6       29.98S
RICE LAKE      CLEAR     75  69  82 E8        30.00S
CHETEK         CLEAR     75  71  88 MISG      29.99S
LADYSMITH      CLEAR     73  66  76 SE6       30.04R
EAU CLAIRE     NOT AVBL
MENOMONIE      FAIR      76  72  86 CALM      29.98R
NEW RICHMOND   PTCLDY    76  70  81 SE6       29.96R
OSCEOLA        MOCLDY    79  72  78 SE9       29.96S HX  82
$$

WIZ003>005-009-010-017-018-050300-
NORTH CENTRAL WISCONSIN

CITY           SKY/WX    TMP DP  RH WIND       PRES   REMARKS
MANITOWISH WTR CLEAR     71  66  84 S5        30.06R
ARBOR VITAE    CLEAR     72  66  82 SE5       30.06S
WOODRUFF       CLEAR     72  66  82 SE5       30.06S
RHINELANDER    CLEAR     70  65  84 SE5       30.08R
EAGLE RIVER    CLEAR     70  62  76 SE3       30.08R
LAND O LAKES   CLEAR     68  65  90 SE3       30.09R
PHILLIPS       CLOUDY    74  67  80 SE5       30.04S
TOMAHAWK       CLEAR     70  65  82 CALM      30.07R
MEDFORD        CLEAR     68  67  95 SE3       30.06R
MERRILL        CLEAR     71  67  87 SE5       30.07S
$$

WIZ029-030-035-036-043>047-050300-
CENTRAL WISCONSIN

CITY           SKY/WX    TMP DP  RH WIND       PRES   REMARKS
WAUSAU         CLEAR     71  66  84 E7        30.04R
MOSINEE        NOT AVBL
MARSHFIELD     CLEAR     71  65  81 SE6       30.05R
STEVENS POINT  PTCLDY    68  65  92 SE3       30.06R
WAUPACA        CLEAR     69  69  99 CALM      30.06R FOG
WAUTOMA        NOT AVBL
WISC RAPIDS    CLEAR     71  65  81 SE5       30.06R
CAMP DOUGLAS   NOT AVBL
$$

WIZ011>013-019>022-031-037>040-048>050-050300-
NORTHEAST WISCONSIN

CITY           SKY/WX    TMP DP  RH WIND       PRES   REMARKS
ANTIGO         CLEAR     67  65  96 SE7       30.09R
SHAWANO        NOT AVBL
OCONTO         PTCLDY    66  66 100 E3        30.05F
STURGEON BAY   CLOUDY    68  64  88 CALM      30.09S
GREEN BAY      CLEAR     68  65  90 SE5       30.07R
MANITOWOC      CLOUDY    66  64  94 MISG      30.07R FOG
APPLETON       CLOUDY    72  64  78 VRB5      30.05R
CLINTONVILLE   CLEAR     68  64  88 E3        30.06R
OSHKOSH        CLEAR     69  65  86 E6        30.05R
$$

WIZ032>034-041-042-053>061-050300-
SOUTHWEST WISCONSIN

CITY           SKY/WX    TMP DP  RH WIND       PRES   REMARKS
LA CROSSE      CLEAR     79  73  82 E8        29.97S HX  82
SPARTA         PTCLDY    76  69  81 E3        30.02R
VIROQUA        PTCLDY    74  73  96 E5        30.03R
BOSCOBEL       CLEAR     76  74  93 CALM      30.00R FOG
PRAIRIE DU CHI CLEAR     77  70  80 E5        29.98R
PLATTEVILLE    CLEAR     79  73  83 SE5       30.02R HX  82
$$

WIZ056-057-062-063-064-067-068-050300-
SOUTH CENTRAL WISCONSIN

CITY           SKY/WX    TMP DP  RH WIND       PRES   REMARKS
REEDSBURG      CLEAR     76  70  82 E5        30.02R
BARABOO/DELLS    N/A     74  67  79 E6        30.04R
LONE ROCK      NOT AVBL
MINERAL POINT  PTCLDY    77  73  88 SE5       30.03R
MADISON        PTCLDY    75  69  81 E3        30.03R
MIDDLETON      PTCLDY    76  70  81 E3        30.03R
WATERTOWN      CLEAR     71  71 100 E3        30.04R
MONROE         PTCLDY    79  72  78 CALM      30.02S HX  82
JANESVILLE     CLEAR     73  70  88 E9        30.03R
$$

WIZ051-052-058>065-066-070>072-050300-
SOUTHEAST WISCONSIN

CITY           SKY/WX    TMP DP  RH WIND       PRES   REMARKS
MILWAUKEE      FOG       67  65  93 SE6       30.06R VSB 1
WAUKESHA       CLEAR     66  63  88 E5        30.08R
MILWAUKEE/TIMM CLEAR     68  63  83 CALM      30.07R
RACINE         CLOUDY    68  65  90 SE6       30.08R
BURLINGTON     PTCLDY    67  64  92 SE5       30.06R
KENOSHA        MOCLDY    67  65  93 E3        30.07R
FOND DU LAC    PTCLDY    69  66  90 E7        30.06R
SHEBOYGAN      PTCLDY    64  63  96 CALM      30.07R FOG
WEST BEND      CLEAR     64  63  94 CALM      30.06R
JUNEAU         CLEAR     70  66  89 E6        30.06R
$$

LSZ147-162-050300-
LAKE SUPERIOR

STATION/POSITION TIME  TEMP    WIND        PRES    WAVE
                       AIR SEA DIR/SP/G            HT/PER
                 (UTC) (F)     (DEG/KT/KT) (MB)    (FT/S)
W MID LAKE BUOY  0050   64 58   90/ 16/ 17 1015.1F   1/ 3
DEVILS ISLAND    0100   64      90/ 10/ 11 1014.9S
PORT WING        0100   53      40/  6/ 10 1014.6S
SAXON HARBOR     0100   70        CALM     1014.9R
$$

LMZ867-665-643>646-050300-
LAKE MICHIGAN

STATION/POSITION TIME  TEMP    WIND        PRES    WAVE
                       AIR SEA DIR/SP/G            HT/PER
                 (UTC) (F)     (DEG/KT/KT) (MB)    (FT/S)
CHAMBERS ISLAND  0100   68     110/  1/  3 1017.9R
S GREEN BAY BUOY 0100   68 67   80/  2/  4 1019.0R
N MID LAKE BUOY  0050   68 67   30/  4/  4 1017.2R   1/ 3
NORTHPORT PIER   0100   68      CALM  /  4 1017.6R
SISTER BAY       0111   68        CALM       N/A
ALGOMA LAKESHORE 0114             CALM       N/A
KEWAUNEE LAKESHO 0100   67     340/  2/  3 1016.8R
SHEBOYGAN LAKESH 0100   59     360/  7/  7 1018.0R
PORT WASHINGTON  0100   62      50/  2/  3 1018.3R
ATWATER BUOY     0100   62 61  350/  2/  4 1018.7F
MILWAUKEE LAKESH 0110   64      70/  3/  3   N/A
S MID LAKE BUOY  0050   67 71   50/  8/ 10 1016.8R   1
KENOSHA   LAKESH 0100   66      80/  2/  4 1016.9S
$$

TC  - TEMPERATURE IN CELSIUS
VSB - VISIBILITY IN STATUTE MILES
WCI - WIND CHILL INDEX
HX  - HEAT INDEX




USA.gov is the U.S. government's official web portal to all federal, state and local government web resources and services.